2025-234C

Last updated on Mon Oct 20 2025 00:02:08 GMT+0000 (Coordinated Universal Time)

1 66055U 25234C 25292.45441150 .00007894 00000+0 35701-3 0 9998 2 66055 97.4590 358.1273 0014265 283.9035 76.0614 15.21103964 56
UTC large
Height (km)
Speed (km/s)
/
Latitude / Longitude
Inclination (degrees)
Orbital Period (minutes)
Azimuth
Elevation
Range (km)
Doppler Factor

Next 0 passes for location: London (51.5072 / 0.1276)

Sorry there are no passes over London.